Location: Unspecified
(43.1763°N, 79.4719°W)
Time: 11:44:38
(UTC-04:00)

CZ-3 Stage 3 - Visible Passes

Search period start: 26 April 2017 00:00
Search period end: 06 May 2017 00:00
Orbit: 397 x 34802 km, 30.7° (Epoch: 24 April)

Date Brightness Start Highest point End Pass type
(mag) Time Alt. Az. Time Alt. Az. Time Alt. Az.
26 Apr 7.0 15:36:21 10° SE 22:17:48 27° E 00:19:29 10° ESE visible
27 Apr 9.4 02:49:01 10° WNW 04:09:14 21° WNW 06:37:52 10° WNW visible
27 Apr 8.3 22:36:48 10° W 00:28:23 63° WSW 07:18:29 10° SW visible
28 Apr 7.7 18:55:08 10° SW 19:28:42 63° SE 04:12:12 10° SSE visible
29 Apr 7.0 15:26:39 10° SE 22:08:07 27° ESE 00:09:23 10° ESE visible
30 Apr 9.4 02:39:22 10° WNW 03:58:30 21° WNW 06:25:00 10° WNW visible
30 Apr 8.4 22:27:31 10° W 00:17:17 63° WSW 07:06:13 10° WSW visible
01 May 7.7 18:45:52 10° SW 23:48:18 61° SE 04:02:21 10° SSE visible
02 May 7.0 15:16:56 10° SE 21:58:18 26° ESE 23:59:09 10° ESE visible
03 May 9.5 02:29:42 10° WNW 03:47:42 21° WNW 06:12:03 10° WNW visible
03 May 8.4 22:18:11 10° W 00:06:08 62° WSW 06:53:46 10° WSW visible
04 May 7.7 18:36:33 10° SW 23:35:42 60° SE 03:52:27 10° SSE visible
05 May 7.0 15:07:14 10° SE 21:48:25 26° ESE 23:48:49 10° ESE visible
